| time (UTC) | temp F | wind direction | speed knots | gust knots | rain 1hr in | rain 24hr in | rain mn in | humidity % | barometer mb |
| 20260508141905 | 66 | 329 | 3.5 | 7.0 | 0.00 | 0.00 | 0.00 | 69 | 1005.1 |
| 20260508141403 | 66 | 20 | 3.5 | 7.0 | 0.00 | 0.00 | 0.00 | 69 | 1005.1 |
| 20260508140904 | 66 | 13 | 3.5 | 7.8 | 0.00 | 0.00 | 0.00 | 69 | 1004.9 |
| 20260508135903 | 66 | 322 | 5.2 | 9.6 | 0.00 | 0.00 | 0.00 | 69 | 1005.0 |
| 20260508135403 | 66 | 0 | 4.3 | 9.6 | 0.00 | 0.00 | 0.00 | 70 | 1005.1 |
| 20260508134904 | 66 | 333 | 3.5 | 7.8 | 0.00 | 0.00 | 0.00 | 69 | 1005.2 |
| 20260508134404 | 66 | 355 | 3.5 | 7.0 | 0.00 | 0.00 | 0.00 | 66 | 1005.3 |
| 20260508133404 | 66 | 178 | 6.1 | 13.9 | 0.00 | 0.00 | 0.00 | 59 | 1005.3 |
| 20260508132903 | 66 | 164 | 7.0 | 13.9 | 0.00 | 0.00 | 0.00 | 58 | 1005.3 |
| 20260508132403 | 66 | 176 | 6.1 | 14.8 | 0.00 | 0.00 | 0.00 | 58 | 1005.3 |
| 20260508131904 | 66 | 223 | 3.5 | 14.8 | 0.00 | 0.00 | 0.00 | 62 | 1005.4 |
| 20260508130903 | 65 | 303 | 1.7 | 7.8 | 0.00 | 0.00 | 0.00 | 67 | 1005.6 |
| 20260508125904 | 64 | 292 | 2.6 | 7.0 | 0.00 | 0.00 | 0.00 | 69 | 1005.7 |
| 20260508125403 | 64 | 178 | 3.5 | 8.7 | 0.00 | 0.00 | 0.00 | 64 | 1005.9 |
| 20260508124404 | 64 | 178 | 2.6 | 13.0 | 0.00 | 0.00 | 0.00 | 64 | 1005.9 |
| 20260508123903 | 64 | 248 | 1.7 | 9.6 | 0.00 | 0.00 | 0.00 | 67 | 1005.9 |
| 20260508123403 | 65 | 266 | 2.6 | 10.4 | 0.00 | 0.00 | 0.00 | 67 | 1005.9 |
| 20260508122903 | 66 | 242 | 1.7 | 10.4 | 0.00 | 0.00 | 0.00 | 65 | 1005.9 |
| 20260508122403 | 66 | 286 | 2.6 | 10.4 | 0.00 | 0.00 | 0.00 | 65 | 1006.0 |
| 20260508121904 | 67 | 279 | 3.5 | 10.4 | 0.00 | 0.00 | 0.00 | 63 | 1006.1 |
| 20260508121403 | 67 | 209 | 3.5 | 9.6 | 0.00 | 0.00 | 0.00 | 62 | 1006.1 |
| 20260508120904 | 65 | 184 | 3.5 | 7.8 | 0.00 | 0.00 | 0.00 | 65 | 1006.2 |
| 20260508120403 | 65 | 176 | 5.2 | 10.4 | 0.00 | 0.00 | 0.00 | 63 | 1006.2 |
| 20260508115903 | 65 | 163 | 6.1 | 10.4 | 0.00 | 0.00 | 0.00 | 62 | 1006.3 |
| 20260508115404 | 65 | 135 | 7.0 | 12.2 | 0.00 | 0.00 | 0.00 | 60 | 1006.3 |
| 20260508114903 | 66 | 134 | 7.0 | 12.2 | 0.00 | 0.00 | 0.00 | 61 | 1006.4 |
| 20260508114403 | 66 | 154 | 6.1 | 11.3 | 0.00 | 0.00 | 0.00 | 61 | 1006.5 |
| 20260508113903 | 66 | 143 | 7.0 | 12.2 | 0.00 | 0.00 | 0.00 | 59 | 1006.4 |
| 20260508113403 | 67 | 144 | 6.1 | 12.2 | 0.00 | 0.00 | 0.00 | 58 | 1006.5 |
| 20260508112904 | 67 | 159 | 5.2 | 10.4 | 0.00 | 0.00 | 0.00 | 57 | 1006.5 |
| 20260508112403 | 67 | 178 | 5.2 | 10.4 | 0.00 | 0.00 | 0.00 | 60 | 1006.5 |
| 20260508111903 | 66 | 211 | 5.2 | 8.7 | 0.00 | 0.00 | 0.00 | 59 | 1006.6 |
| 20260508110903 | 67 | 178 | 6.1 | 10.4 | 0.00 | 0.00 | 0.00 | 58 | 1006.7 |
| 20260508110416 | 67 | 175 | 7.0 | 13.0 | 0.00 | 0.00 | 0.00 | 58 | 1006.7 |
| 20260508105903 | 67 | 207 | 7.0 | 13.0 | 0.00 | 0.00 | 0.00 | 60 | 1006.7 |
| 20260508104905 | 65 | 194 | 5.2 | 13.0 | 0.00 | 0.00 | 0.00 | 63 | 1006.9 |
| 20260508104405 | 65 | 193 | 6.1 | 13.0 | 0.00 | 0.00 | 0.00 | 62 | 1006.9 |
| 20260508103904 | 65 | 211 | 5.2 | 11.3 | 0.00 | 0.00 | 0.00 | 63 | 1006.9 |
| 20260508103404 | 64 | 215 | 5.2 | 9.6 | 0.00 | 0.00 | 0.00 | 65 | 1006.9 |
| 20260508102903 | 64 | 185 | 4.3 | 9.6 | 0.00 | 0.00 | 0.00 | 66 | 1007.0 |
| 20260508102403 | 64 | 135 | 5.2 | 11.3 | 0.00 | 0.00 | 0.00 | 67 | 1007.0 |
| 20260508101405 | 64 | 146 | 5.2 | 10.4 | 0.00 | 0.00 | 0.00 | 68 | 1006.9 |
| 20260508100905 | 63 | 161 | 4.3 | 10.4 | 0.00 | 0.00 | 0.00 | 70 | 1006.9 |
| 20260508100405 | 62 | 163 | 5.2 | 13.0 | 0.00 | 0.00 | 0.00 | 70 | 1007.0 |
| 20260508095904 | 62 | 169 | 6.1 | 13.0 | 0.00 | 0.00 | 0.00 | 71 | 1007.0 |
| 20260508095404 | 62 | 165 | 5.2 | 13.0 | 0.00 | 0.00 | 0.00 | 69 | 1007.0 |
| 20260508094906 | 62 | 205 | 4.3 | 13.0 | 0.00 | 0.00 | 0.00 | 71 | 1007.1 |
| 20260508094405 | 63 | 185 | 5.2 | 9.6 | 0.00 | 0.00 | 0.00 | 72 | 1007.1 |
| 20260508093905 | 62 | 164 | 6.1 | 10.4 | 0.00 | 0.00 | 0.00 | 72 | 1007.1 |
| 20260508093405 | 62 | 163 | 7.0 | 13.0 | 0.00 | 0.00 | 0.00 | 71 | 1007.1 |
| 20260508092903 | 62 | 142 | 7.0 | 13.0 | 0.00 | 0.00 | 0.00 | 72 | 1007.1 |
| 20260508092403 | 61 | 135 | 5.2 | 10.4 | 0.00 | 0.00 | 0.00 | 73 | 1007.1 |
| 20260508091407 | 60 | 163 | 6.1 | 9.6 | 0.00 | 0.00 | 0.00 | 75 | 1007.1 |
| 20260508090903 | 60 | 177 | 5.2 | 9.6 | 0.00 | 0.00 | 0.00 | 75 | 1007.1 |
| 20260508090403 | 60 | 178 | 5.2 | 9.6 | 0.00 | 0.00 | 0.00 | 76 | 1007.1 |
| 20260508085904 | 60 | 198 | 6.1 | 11.3 | 0.00 | 0.00 | 0.00 | 78 | 1007.2 |
| 20260508085404 | 59 | 109 | 7.0 | 11.3 | 0.00 | 0.00 | 0.00 | 78 | 1007.3 |
| 20260508084904 | 59 | 173 | 6.1 | 10.4 | 0.00 | 0.00 | 0.00 | 80 | 1007.4 |
| 20260508084404 | 59 | 160 | 7.0 | 12.2 | 0.00 | 0.00 | 0.00 | 81 | 1007.4 |
| 20260508083904 | 59 | 134 | 7.0 | 12.2 | 0.00 | 0.00 | 0.00 | 82 | 1007.4 |
| 20260508083404 | 58 | 167 | 5.2 | 9.6 | 0.00 | 0.00 | 0.00 | 83 | 1007.4 |
| 20260508082403 | 57 | 177 | 6.1 | 9.6 | 0.00 | 0.00 | 0.00 | 84 | 1007.4 |
| 20260508081906 | 57 | 167 | 4.3 | 9.6 | 0.00 | 0.00 | 0.00 | 85 | 1007.4 |
| 20260508081406 | 57 | 133 | 3.5 | 7.0 | 0.00 | 0.00 | 0.00 | 86 | 1007.3 |
| 20260508080906 | 56 | 155 | 4.3 | 7.8 | 0.00 | 0.00 | 0.00 | 87 | 1007.3 |
| 20260508075905 | 56 | 137 | 3.5 | 7.8 | 0.00 | 0.00 | 0.00 | 87 | 1007.3 |
| 20260508074907 | 56 | 159 | 3.5 | 5.2 | 0.00 | 0.00 | 0.00 | 88 | 1007.3 |
| 20260508074407 | 55 | 146 | 3.5 | 6.1 | 0.00 | 0.00 | 0.00 | 88 | 1007.3 |
| 20260508073858 | 55 | 146 | 3.5 | 7.0 | 0.00 | 0.00 | 0.00 | 89 | 1007.3 |
| 20260508072847 | 55 | 140 | 2.6 | 6.1 | 0.00 | 0.00 | 0.00 | 89 | 1007.3 |
| 20260508072340 | 55 | 142 | 1.7 | 4.3 | 0.00 | 0.00 | 0.00 | 89 | 1007.2 |
| 20260508071834 | 54 | 139 | 0.9 | 3.5 | 0.00 | 0.00 | 0.00 | 89 | 1007.1 |
| 20260508070833 | 54 | 148 | 0.9 | 2.6 | 0.00 | 0.00 | 0.00 | 88 | 1007.0 |
| 20260508070333 | 54 | 148 | 0.0 | 4.3 | 0.00 | 0.00 | 0.00 | 88 | 1007.0 |
| 20260508065832 | 54 | 148 | 0.9 | 4.3 | 0.00 | 0.00 | 0.00 | 88 | 1007.0 |
| 20260508065332 | 54 | 148 | 0.9 | 4.3 | 0.00 | 0.00 | 0.00 | 88 | 1006.9 |
| 20260508064832 | 53 | 148 | 0.9 | 4.3 | 0.00 | 0.00 | 0.00 | 88 | 1006.9 |
| 20260508064333 | 53 | 153 | 0.9 | 2.6 | 0.00 | 0.00 | 0.00 | 87 | 1007.0 |
| 20260508063833 | 53 | 157 | 0.9 | 3.5 | 0.00 | 0.00 | 0.00 | 87 | 1006.9 |
| 20260508062832 | 53 | 163 | 0.0 | 0.9 | 0.00 | 0.00 | 0.00 | 87 | 1006.9 |
| 20260508062333 | 53 | 163 | 0.0 | 0.9 | 0.00 | 0.00 | 0.00 | 87 | 1006.8 |
| 20260508061832 | 53 | 163 | 0.0 | 0.9 | 0.00 | 0.00 | 0.00 | 87 | 1006.9 |
| 20260508061332 | 53 | 164 | 0.0 | 0.0 | 0.00 | 0.00 | 0.00 | 87 | 1006.7 |
| 20260508060831 | 53 | 164 | 0.0 | 0.9 | 0.00 | 0.00 | 0.00 | 87 | 1006.6 |
| 20260508060332 | 53 | 164 | 0.9 | 3.5 | 0.00 | 0.00 | 0.00 | 87 | 1006.7 |
| 20260508055831 | 53 | 164 | 0.9 | 5.2 | 0.00 | 0.00 | 0.00 | 87 | 1006.7 |
| 20260508055332 | 53 | 163 | 0.9 | 5.2 | 0.00 | 0.00 | 0.00 | 87 | 1006.6 |
| 20260508054828 | 53 | 172 | 0.0 | 2.6 | 0.00 | 0.00 | 0.00 | 87 | 1006.6 |
| 20260508054330 | 53 | 118 | 0.0 | 0.9 | 0.00 | 0.00 | 0.00 | 87 | 1006.5 |
| 20260508053329 | 53 | 118 | 0.0 | 0.9 | 0.00 | 0.00 | 0.00 | 87 | 1006.4 |
| 20260508052826 | 53 | 118 | 0.0 | 1.7 | 0.00 | 0.00 | 0.00 | 87 | 1006.3 |
| 20260508052324 | 53 | 118 | 0.0 | 2.6 | 0.00 | 0.00 | 0.00 | 87 | 1006.3 |
| 20260508051822 | 53 | 119 | 0.0 | 2.6 | 0.00 | 0.00 | 0.00 | 87 | 1006.3 |
| 20260508050819 | 53 | 236 | 0.0 | 0.9 | 0.00 | 0.00 | 0.00 | 86 | 1006.4 |
| 20260508050317 | 53 | 236 | 0.0 | 0.9 | 0.00 | 0.00 | 0.00 | 86 | 1006.4 |
| 20260508045816 | 53 | 236 | 0.0 | 0.9 | 0.00 | 0.00 | 0.00 | 86 | 1006.3 |
| 20260508043812 | 53 | 236 | 0.0 | 0.0 | 0.00 | 0.00 | 0.00 | 86 | 1006.2 |
| 20260508043313 | 53 | 236 | 0.0 | 0.0 | 0.00 | 0.00 | 0.00 | 86 | 1006.2 |
| 20260508042810 | 53 | 236 | 0.0 | 0.9 | 0.00 | 0.00 | 0.00 | 86 | 1006.1 |
| 20260508042311 | 53 | 236 | 0.0 | 0.9 | 0.00 | 0.00 | 0.00 | 86 | 1006.1 |
| 20260508041809 | 53 | 236 | 0.0 | 0.9 | 0.00 | 0.00 | 0.00 | 86 | 1006.2 |
| 20260508041308 | 53 | 236 | 0.0 | 0.9 | 0.00 | 0.00 | 0.00 | 86 | 1006.3 |
| 20260508040308 | 53 | 236 | 0.0 | 0.9 | 0.00 | 0.00 | 0.00 | 86 | 1006.3 |
| 20260508035808 | 53 | 236 | 0.0 | 0.9 | 0.00 | 0.00 | 0.00 | 85 | 1006.1 |
| 20260508035307 | 53 | 236 | 0.0 | 0.0 | 0.00 | 0.00 | 0.00 | 85 | 1006.1 |
| 20260508034807 | 53 | 236 | 0.0 | 0.0 | 0.00 | 0.00 | 0.00 | 85 | 1006.2 |
| 20260508033804 | 53 | 236 | 0.0 | 0.9 | 0.00 | 0.00 | 0.00 | 84 | 1006.3 |
| 20260508033307 | 53 | 236 | 0.0 | 0.9 | 0.00 | 0.00 | 0.00 | 84 | 1006.2 |
| 20260508032807 | 53 | 236 | 0.0 | 0.9 | 0.00 | 0.00 | 0.00 | 84 | 1006.3 |
| 20260508031806 | 54 | 236 | 0.0 | 0.0 | 0.00 | 0.00 | 0.00 | 84 | 1006.3 |
| 20260508031307 | 54 | 236 | 0.0 | 0.0 | 0.00 | 0.00 | 0.00 | 84 | 1006.3 |
| 20260508030806 | 54 | 236 | 0.0 | 0.0 | 0.00 | 0.00 | 0.00 | 84 | 1006.4 |
| 20260508030307 | 54 | 236 | 0.0 | 0.0 | 0.00 | 0.00 | 0.00 | 84 | 1006.3 |
| 20260508025806 | 54 | 236 | 0.0 | 0.0 | 0.00 | 0.00 | 0.00 | 83 | 1006.5 |
| 20260508025307 | 54 | 236 | 0.0 | 0.9 | 0.00 | 0.00 | 0.00 | 83 | 1006.4 |
| 20260508024806 | 54 | 236 | 0.0 | 1.7 | 0.00 | 0.00 | 0.00 | 83 | 1006.5 |
| 20260508024308 | 54 | 236 | 0.9 | 1.7 | 0.00 | 0.00 | 0.00 | 83 | 1006.6 |
| 20260508022806 | 54 | 236 | 0.0 | 0.9 | 0.00 | 0.00 | 0.00 | 82 | 1006.5 |
| 20260508022307 | 54 | 237 | 0.0 | 0.0 | 0.00 | 0.00 | 0.00 | 82 | 1006.5 |
| 20260508021806 | 54 | 237 | 0.0 | 0.0 | 0.00 | 0.00 | 0.00 | 82 | 1006.5 |
| 20260508020806 | 54 | 236 | 0.0 | 0.9 | 0.00 | 0.00 | 0.00 | 81 | 1006.6 |
| 20260508015806 | 55 | 236 | 0.0 | 1.7 | 0.00 | 0.00 | 0.00 | 80 | 1006.8 |
| 20260508015306 | 55 | 237 | 0.0 | 0.0 | 0.00 | 0.00 | 0.00 | 80 | 1006.7 |
| 20260508014807 | 55 | 237 | 0.0 | 0.9 | 0.00 | 0.00 | 0.00 | 80 | 1006.7 |
| 20260508014307 | 55 | 237 | 0.0 | 0.9 | 0.00 | 0.00 | 0.00 | 80 | 1006.9 |
| 20260508013806 | 55 | 237 | 0.0 | 0.0 | 0.00 | 0.00 | 0.00 | 80 | 1007.0 |
| 20260508013307 | 55 | 237 | 0.0 | 0.0 | 0.00 | 0.00 | 0.00 | 79 | 1007.0 |
| 20260508012307 | 55 | 237 | 0.0 | 0.0 | 0.00 | 0.00 | 0.00 | 79 | 1007.1 |
| 20260508011806 | 56 | 237 | 0.0 | 0.0 | 0.00 | 0.00 | 0.00 | 79 | 1007.1 |
| 20260508011307 | 56 | 237 | 0.0 | 0.9 | 0.00 | 0.00 | 0.00 | 79 | 1007.2 |
| 20260508010806 | 56 | 237 | 0.0 | 0.9 | 0.00 | 0.00 | 0.00 | 78 | 1007.3 |
| 20260508010307 | 56 | 237 | 0.0 | 0.9 | 0.00 | 0.00 | 0.00 | 78 | 1007.3 |
| 20260508005806 | 56 | 237 | 0.0 | 1.7 | 0.00 | 0.00 | 0.00 | 78 | 1007.4 |
| 20260508004805 | 56 | 237 | 0.0 | 0.0 | 0.00 | 0.00 | 0.00 | 78 | 1007.3 |
| 20260508003806 | 56 | 237 | 0.0 | 0.0 | 0.00 | 0.00 | 0.00 | 78 | 1007.3 |
| 20260508003307 | 56 | 237 | 0.0 | 0.0 | 0.00 | 0.00 | 0.00 | 78 | 1007.3 |
| 20260508002800 | 56 | 237 | 0.0 | 0.0 | 0.00 | 0.00 | 0.00 | 77 | 1007.5 |
| 20260508002253 | 56 | 237 | 0.0 | 0.0 | 0.00 | 0.00 | 0.00 | 77 | 1007.4 |
| 20260508001753 | 56 | 237 | 0.0 | 0.9 | 0.00 | 0.00 | 0.00 | 77 | 1007.6 |
| 20260508001251 | 57 | 237 | 0.0 | 2.6 | 0.00 | 0.00 | 0.00 | 77 | 1007.6 |
| 20260508000250 | 57 | 272 | 0.0 | 1.7 | 0.00 | 0.00 | 0.00 | 76 | 1007.8 |
| 20260507235746 | 57 | 293 | 0.0 | 0.9 | 0.00 | 0.00 | 0.00 | 76 | 1007.6 |
| 20260507235244 | 57 | 293 | 0.0 | 0.0 | 0.00 | 0.00 | 0.00 | 76 | 1007.5 |
| 20260507234744 | 57 | 293 | 0.0 | 0.0 | 0.00 | 0.00 | 0.00 | 75 | 1007.6 |
| 20260507234244 | 57 | 293 | 0.0 | 0.0 | 0.00 | 0.00 | 0.00 | 75 | 1007.5 |
| 20260507233741 | 57 | 293 | 0.0 | 0.9 | 0.00 | 0.00 | 0.00 | 75 | 1007.5 |
| 20260507233239 | 58 | 293 | 0.0 | 0.9 | 0.00 | 0.00 | 0.00 | 75 | 1007.5 |
| 20260507232737 | 58 | 293 | 0.0 | 0.9 | 0.00 | 0.00 | 0.00 | 75 | 1007.6 |
| 20260507232236 | 58 | 293 | 0.0 | 0.9 | 0.00 | 0.00 | 0.00 | 75 | 1007.6 |
| 20260507231733 | 58 | 293 | 0.0 | 1.7 | 0.00 | 0.00 | 0.00 | 75 | 1007.6 |
| 20260507231234 | 58 | 293 | 0.9 | 2.6 | 0.00 | 0.00 | 0.00 | 74 | 1007.4 |
| 20260507230734 | 58 | 293 | 0.9 | 2.6 | 0.00 | 0.00 | 0.00 | 74 | 1007.7 |
| 20260507230234 | 58 | 292 | 0.9 | 2.6 | 0.00 | 0.00 | 0.00 | 74 | 1007.7 |
| 20260507225734 | 58 | 297 | 0.9 | 2.6 | 0.00 | 0.00 | 0.00 | 74 | 1007.7 |
| 20260507225234 | 58 | 298 | 0.0 | 2.6 | 0.00 | 0.00 | 0.00 | 74 | 1007.8 |
| 20260507224734 | 58 | 294 | 0.9 | 3.5 | 0.00 | 0.00 | 0.00 | 74 | 1007.9 |
| 20260507224234 | 58 | 294 | 0.9 | 3.5 | 0.00 | 0.00 | 0.00 | 74 | 1008.1 |
| 20260507223735 | 58 | 270 | 0.9 | 3.5 | 0.00 | 0.00 | 0.00 | 74 | 1008.1 |
| 20260507222735 | 58 | 257 | 1.7 | 6.1 | 0.00 | 0.00 | 0.00 | 74 | 1008.1 |
| 20260507222234 | 58 | 294 | 1.7 | 7.0 | 0.00 | 0.00 | 0.00 | 74 | 1008.2 |
| 20260507221734 | 58 | 291 | 1.7 | 7.0 | 0.00 | 0.00 | 0.00 | 74 | 1008.2 |
| 20260507221235 | 58 | 288 | 1.7 | 6.1 | 0.00 | 0.00 | 0.00 | 74 | 1008.3 |
| 20260507220735 | 58 | 297 | 1.7 | 6.1 | 0.00 | 0.00 | 0.00 | 74 | 1008.4 |
| 20260507220234 | 58 | 306 | 0.9 | 3.5 | 0.00 | 0.00 | 0.00 | 74 | 1008.5 |
| 20260507215734 | 58 | 273 | 0.9 | 6.1 | 0.00 | 0.00 | 0.00 | 74 | 1008.7 |
| 20260507215234 | 58 | 273 | 1.7 | 6.1 | 0.00 | 0.00 | 0.00 | 74 | 1008.7 |
| 20260507214734 | 58 | 295 | 2.6 | 7.8 | 0.00 | 0.00 | 0.00 | 74 | 1008.7 |
| 20260507214236 | 58 | 286 | 3.5 | 7.8 | 0.00 | 0.00 | 0.00 | 74 | 1008.6 |
| 20260507213737 | 58 | 279 | 2.6 | 7.0 | 0.00 | 0.00 | 0.00 | 74 | 1008.6 |
| 20260507213236 | 58 | 297 | 2.6 | 7.8 | 0.00 | 0.00 | 0.00 | 74 | 1008.6 |
| 20260507212737 | 58 | 269 | 3.5 | 10.4 | 0.00 | 0.00 | 0.00 | 74 | 1008.6 |
| 20260507212237 | 58 | 310 | 3.5 | 10.4 | 0.00 | 0.00 | 0.00 | 74 | 1008.7 |
| 20260507211736 | 58 | 312 | 3.5 | 10.4 | 0.00 | 0.00 | 0.00 | 75 | 1008.7 |
| 20260507211237 | 58 | 306 | 3.5 | 10.4 | 0.00 | 0.00 | 0.00 | 75 | 1008.7 |
| 20260507210236 | 58 | 252 | 3.5 | 8.7 | 0.00 | 0.00 | 0.00 | 76 | 1008.8 |
| 20260507205737 | 58 | 252 | 4.3 | 8.7 | 0.00 | 0.00 | 0.00 | 76 | 1008.7 |
| 20260507205237 | 58 | 277 | 3.5 | 7.8 | 0.00 | 0.00 | 0.00 | 76 | 1008.6 |
| 20260507204736 | 58 | 277 | 2.6 | 7.8 | 0.00 | 0.00 | 0.00 | 77 | 1008.6 |
| 20260507203737 | 58 | 229 | 4.3 | 10.4 | 0.00 | 0.00 | 0.00 | 76 | 1008.4 |
| 20260507203237 | 58 | 230 | 4.3 | 9.6 | 0.00 | 0.00 | 0.00 | 76 | 1008.4 |
| 20260507202236 | 58 | 275 | 4.3 | 7.8 | 0.00 | 0.00 | 0.00 | 76 | 1008.2 |
| 20260507201735 | 58 | 296 | 4.3 | 8.7 | 0.00 | 0.00 | 0.00 | 76 | 1008.3 |
| 20260507201250 | 58 | 287 | 3.5 | 8.7 | 0.00 | 0.00 | 0.00 | 76 | 1008.2 |
| 20260507200737 | 59 | 277 | 3.5 | 9.6 | 0.00 | 0.00 | 0.00 | 76 | 1008.2 |
| 20260507195737 | 59 | 273 | 3.5 | 7.8 | 0.00 | 0.00 | 0.00 | 76 | 1008.2 |
| 20260507195235 | 59 | 276 | 2.6 | 7.8 | 0.00 | 0.00 | 0.00 | 76 | 1008.2 |
| 20260507194736 | 59 | 264 | 2.6 | 6.1 | 0.00 | 0.00 | 0.00 | 75 | 1008.2 |
| 20260507194236 | 59 | 298 | 2.6 | 6.1 | 0.00 | 0.00 | 0.00 | 75 | 1008.2 |
| 20260507193737 | 59 | 277 | 3.5 | 7.0 | 0.00 | 0.00 | 0.00 | 74 | 1008.1 |
| 20260507193235 | 59 | 284 | 4.3 | 7.8 | 0.00 | 0.00 | 0.00 | 75 | 1008.1 |
| 20260507192734 | 59 | 260 | 3.5 | 7.8 | 0.00 | 0.00 | 0.00 | 75 | 1008.1 |
| 20260507192234 | 59 | 288 | 3.5 | 7.0 | 0.00 | 0.00 | 0.00 | 75 | 1008.1 |
| 20260507191734 | 59 | 288 | 3.5 | 7.8 | 0.00 | 0.00 | 0.00 | 74 | 1008.1 |
| 20260507191234 | 59 | 311 | 3.5 | 7.8 | 0.00 | 0.00 | 0.00 | 74 | 1008.1 |
| 20260507190234 | 60 | 292 | 3.5 | 7.8 | 0.00 | 0.00 | 0.00 | 74 | 1008.0 |
| 20260507185734 | 60 | 273 | 3.5 | 7.0 | 0.00 | 0.00 | 0.00 | 74 | 1008.0 |
| 20260507185234 | 60 | 276 | 2.6 | 7.8 | 0.00 | 0.00 | 0.00 | 74 | 1007.9 |
| 20260507184234 | 60 | 271 | 3.5 | 7.0 | 0.00 | 0.00 | 0.00 | 75 | 1007.8 |
| 20260507182734 | 61 | 277 | 5.2 | 9.6 | 0.00 | 0.00 | 0.00 | 74 | 1007.7 |
| 20260507182234 | 61 | 294 | 4.3 | 8.7 | 0.00 | 0.00 | 0.00 | 74 | 1007.6 |
| 20260507181734 | 61 | 279 | 3.5 | 8.7 | 0.00 | 0.00 | 0.00 | 73 | 1007.6 |
| 20260507181234 | 61 | 292 | 3.5 | 7.0 | 0.00 | 0.00 | 0.00 | 73 | 1007.7 |
| 20260507180736 | 61 | 272 | 3.5 | 7.8 | 0.00 | 0.00 | 0.00 | 73 | 1007.6 |
| 20260507180236 | 61 | 271 | 4.3 | 7.8 | 0.00 | 0.00 | 0.00 | 73 | 1007.6 |
| 20260507175737 | 61 | 288 | 4.3 | 7.8 | 0.00 | 0.00 | 0.00 | 72 | 1007.5 |
| 20260507175235 | 62 | 278 | 3.5 | 7.8 | 0.00 | 0.00 | 0.00 | 72 | 1007.5 |
| 20260507174736 | 62 | 303 | 3.5 | 8.7 | 0.00 | 0.00 | 0.00 | 72 | 1007.5 |
| 20260507174236 | 62 | 301 | 5.2 | 9.6 | 0.00 | 0.00 | 0.00 | 71 | 1007.5 |
| 20260507173737 | 62 | 296 | 4.3 | 9.6 | 0.00 | 0.00 | 0.00 | 71 | 1007.5 |
| 20260507172737 | 62 | 286 | 4.3 | 9.6 | 0.00 | 0.00 | 0.00 | 71 | 1007.7 |
| 20260507172237 | 62 | 305 | 5.2 | 9.6 | 0.00 | 0.00 | 0.00 | 70 | 1007.7 |
| 20260507171236 | 62 | 281 | 5.2 | 10.4 | 0.00 | 0.00 | 0.00 | 70 | 1007.7 |
| 20260507170237 | 63 | 305 | 7.0 | 12.2 | 0.00 | 0.00 | 0.00 | 68 | 1007.8 |
| 20260507165730 | 63 | 290 | 7.0 | 12.2 | 0.00 | 0.00 | 0.00 | 68 | 1007.8 |
| 20260507165224 | 63 | 292 | 7.0 | 11.3 | 0.00 | 0.00 | 0.00 | 68 | 1007.8 |
| 20260507164221 | 64 | 275 | 6.1 | 9.6 | 0.00 | 0.00 | 0.00 | 68 | 1007.7 |
| 20260507163722 | 64 | 275 | 6.1 | 9.6 | 0.00 | 0.00 | 0.00 | 68 | 1007.7 |
| 20260507163222 | 64 | 290 | 7.0 | 11.3 | 0.00 | 0.00 | 0.00 | 67 | 1007.6 |
| 20260507162722 | 64 | 275 | 7.0 | 12.2 | 0.00 | 0.00 | 0.00 | 68 | 1007.6 |
| 20260507162223 | 65 | 281 | 7.8 | 12.2 | 0.00 | 0.00 | 0.00 | 67 | 1007.6 |
| 20260507161721 | 65 | 280 | 8.7 | 13.0 | 0.00 | 0.00 | 0.00 | 67 | 1007.5 |
| 20260507160721 | 65 | 294 | 7.8 | 12.2 | 0.00 | 0.00 | 0.00 | 67 | 1007.6 |
| 20260507160221 | 65 | 287 | 7.0 | 11.3 | 0.00 | 0.00 | 0.00 | 66 | 1007.5 |
| 20260507155222 | 66 | 277 | 7.8 | 13.9 | 0.00 | 0.00 | 0.00 | 66 | 1007.5 |
| 20260507154719 | 66 | 294 | 7.8 | 12.2 | 0.00 | 0.00 | 0.00 | 66 | 1007.5 |
| 20260507154220 | 65 | 295 | 7.0 | 12.2 | 0.00 | 0.00 | 0.00 | 66 | 1007.5 |
| 20260507153220 | 66 | 309 | 7.8 | 12.2 | 0.00 | 0.00 | 0.00 | 65 | 1007.6 |
| 20260507152215 | 66 | 309 | 8.7 | 12.2 | 0.00 | 0.00 | 0.00 | 66 | 1007.7 |
| 20260507151715 | 65 | 290 | 7.8 | 12.2 | 0.00 | 0.00 | 0.00 | 66 | 1007.8 |
| 20260507151215 | 65 | 301 | 7.8 | 12.2 | 0.00 | 0.00 | 0.00 | 66 | 1007.8 |
| 20260507150716 | 65 | 313 | 7.8 | 12.2 | 0.00 | 0.00 | 0.00 | 66 | 1007.9 |
| 20260507145713 | 65 | 268 | 7.0 | 11.3 | 0.00 | 0.00 | 0.00 | 66 | 1007.9 |
| 20260507144713 | 66 | 281 | 8.7 | 11.3 | 0.00 | 0.00 | 0.00 | 65 | 1008.0 |
| 20260507144213 | 66 | 299 | 7.8 | 11.3 | 0.00 | 0.00 | 0.00 | 65 | 1008.0 |
| 20260507143710 | 66 | 292 | 7.8 | 12.2 | 0.00 | 0.00 | 0.00 | 65 | 1008.0 |
| 20260507143209 | 66 | 300 | 7.8 | 12.2 | 0.00 | 0.00 | 0.00 | 65 | 1008.0 |
| 20260507142710 | 66 | 342 | 7.8 | 10.4 | 0.00 | 0.00 | 0.00 | 65 | 1008.1 |